FENGYUN 1C DEB

Satellite information

Favourite Embed

Satellite Type and Status

DEBRISIN ORBIT

Key statistics

Satellite FENGYUN 1C DEB at a glance.

Uptime

9715

Days in orbit

Revolutions

≈ 14.3

Per day

Orbit

SSO

Sun Synchronous Orbit

Inclination

100.2

Latest

Satellite identification and parameters

Extended collection of information and parameters for FENGYUN 1C DEB.

Object identification

Identified? True

Debris? True

Object name: FENGYUN 1C DEB

International designator: 1999-025KC

Object number (NORAD): 29954

Object ID (CCSDS): 29954

Country: PEOPLES REPUBLIC OF CHINA (PRC)

Current information (Y/N): Y

RCS size: SMALL

Orbital parameters

Period: 100.402 minutes

Inclination: 100.1513 deg

SMA: 7155.74 km

Apoapsis: 830.822 km

Periapsis: 724.387 km

RAAN: 25.7914 deg

Eccentricy: 0.00743707

Argument of periapsis: 266.9587 deg

Mean anomaly: 92.308 deg

Mean motion: 14.34237119 rev/day

Mean motion (dot): 0.00003364 rev/day2

B* drag term: 0.0011820851 1/REarth

Two-line elements (TLE)

Creation date: Dec. 14, 2025, 3:07 a.m.

Reference frame: TEME

Reference center: EARTH

Epoch: Dec. 13, 2025, 1:26 p.m. UTC

TLE line 0: 0 FENGYUN 1C DEB

TLE line 1: 1 29954U 99025KC 25347.56010050 .00003364 00000-0 11821-2 0 9993

TLE line 2: 2 29954 100.1513 25.7914 0074371 266.9587 92.3080 14.34237119981998

Live tracking on map

Real-time ground track for satellite FENGYUN 1C DEB.

In-orbit conjunctions

A list of the most updated potential collisions computed for object FENGYUN 1C DEB.

Target Orbit TCA Probability of collision Miss distance Type
IRIDIUM 36 LEO 2025-09-01 23:13:43 0.0005338412 501.0 (m) PAYLOAD
METEOR 1-20 LEO 2024-11-23 01:59:51 0.0001287088 503.0 (m) PAYLOAD

Associated space launch

Chinese polar orbiting meteorological satellite

FENGYUN 1C DEB was lifted into orbit during the mission ‘Long March 4B | Feng Yun 1C’, on board a Long March 4B space rocket.

The launch took place on May 10, 1999, 1:33 a.m. from Launch Complex 7.

For more information about the launch, click the button.

Launch to space Long March 4B | Feng Yun 1C
Long March 4B | Feng Yun 1C

Agency: N/A

Status: Launch Successful

Launch date: May 10, 1999, 1:33 a.m. UTC

Rocket: Long March 4B

Launch pad: Launch Complex 7

Location: Taiyuan Satellite Launch Center, People's Republic of China

...

Latest news about this satellite

There are no fresh news available about this satellite. Check back as we update our databases every day.


Newsletter sign-up

Weekly statistics, charts and insights to help you stay on top of the space industry.